map of TTN home
TTN - Airport
Location
City:  Trenton, New Jersey, United States
Name:Trenton Mercer Airport
ICAO:KTTN
IATA:TTN
FAA LID:TTN

Details
Type:Airport (Part 139 Class I)
Use:Public/Civil
Latitude:4016'36"N (40.276694)
Longitude:7448'48"W (-74.813471)
Datum:WGS 1984
Elevation:212 ft (65 m)
Variation:12.37W (WMM2015 magnetic declination)
0.02 annual change
Runways:2
Longest:6006 × 150 ft (1831 × 45.5 m), paved

Time
Time Zone:UTC-5 (DST-4)
Local Time:

Weather
METAR:KTTN 260353Z AUTO 22005KT 10SM CLR 23/18 A2987 RMK AO2 SLP106 T02330178
TAF:KTTN 252322Z 2600/2624 22008KT P6SM SKC
FM260200 23004KT P6SM SKC
FM261500 26006KT P6SM SCT050 PROB30 2622/2624 TSRA OVC035CB

Related Locations
Nearby:
Farthest:YAUG: 11753 mi / 18915 km
Augusta [Augusta Airport], WA, AU

Find:

   beyond  
but within

Other Information
Maps:
NOTAMs:
Links:
Sources:

  
flag of United States
flag of New Jersey
  

Airport Diagram

Airport diagram for TTN

Airport diagram PDF

Sectional Chart

Flight Planning
at skyvector.com

Satellite Image

Google Maps Satellite view

 

Copyright © 2004-2018 Karl L. Swartz. All rights reserved.
The Great Circle Mapper name and logo are trademarks of the Great Circle Mapper.
All other trademarks mentioned herein belong to their respective owners.
Please see credits for attibutions and further copyright information.

  Follow gcmap on Facebook Follow gcmap on Twitter Follow gcmap on Google+ GCmap on LinkedIn

hCard Microformat

Geo Microformat